TimeCST,TemperatureF,Dew PointF,Humidity,Sea Level PressureIn,VisibilityMPH,Wind Direction,Wind SpeedMPH,Gust SpeedMPH,PrecipitationIn,Events,Conditions,WindDirDegrees,DateUTC
12:53 AM,30.0,21.9,72,30.33,10.0,Calm,Calm,-,N/A,,Clear,0,2012-12-05 06:53:00
1:53 AM,30.9,25.0,79,30.33,10.0,Calm,Calm,-,N/A,,Clear,0,2012-12-05 07:53:00
2:53 AM,26.1,21.0,81,30.34,10.0,NNW,3.5,-,N/A,,Clear,340,2012-12-05 08:53:00
3:53 AM,28.0,23.0,81,30.34,10.0,NNE,3.5,-,N/A,,Clear,20,2012-12-05 09:53:00
4:53 AM,25.0,19.9,81,30.34,10.0,NW,4.6,-,N/A,,Clear,320,2012-12-05 10:53:00
5:53 AM,23.0,19.0,85,30.34,10.0,North,3.5,-,N/A,,Clear,350,2012-12-05 11:53:00
6:53 AM,26.1,19.9,78,30.34,10.0,Calm,Calm,-,N/A,,Clear,0,2012-12-05 12:53:00
8:53 AM,37.9,26.1,62,30.32,10.0,SE,6.9,-,N/A,,Clear,130,2012-12-05 14:53:00
9:53 AM,43.0,28.9,58,30.33,10.0,Calm,Calm,-,N/A,,Clear,0,2012-12-05 15:53:00
10:53 AM,48.0,28.9,48,30.30,10.0,ESE,5.8,-,N/A,,Clear,120,2012-12-05 16:53:00
11:53 AM,52.0,28.9,41,30.27,10.0,South,8.1,-,N/A,,Clear,170,2012-12-05 17:53:00
12:53 PM,55.0,30.0,38,30.23,10.0,SSE,8.1,-,N/A,,Clear,150,2012-12-05 18:53:00
1:53 PM,61.0,27.0,27,30.18,10.0,South,13.8,20.7,N/A,,Clear,180,2012-12-05 19:53:00
2:53 PM,60.1,23.0,24,30.14,10.0,South,25.3,33.4,N/A,,Clear,180,2012-12-05 20:53:00
3:53 PM,57.9,25.0,28,30.12,10.0,South,19.6,-,N/A,,Clear,180,2012-12-05 21:53:00
4:53 PM,53.1,26.1,35,30.12,10.0,SSE,11.5,-,N/A,,Clear,160,2012-12-05 22:53:00
5:53 PM,48.9,27.0,43,30.11,10.0,SSE,9.2,-,N/A,,Clear,150,2012-12-05 23:53:00
6:53 PM,50.0,28.9,44,30.08,10.0,SSE,9.2,-,N/A,,Clear,160,2012-12-06 00:53:00
7:53 PM,48.0,28.9,48,30.08,10.0,South,9.2,-,N/A,,Clear,170,2012-12-06 01:53:00
8:53 PM,46.0,30.0,54,30.06,10.0,SSE,9.2,-,N/A,,Clear,150,2012-12-06 02:53:00
9:53 PM,46.0,30.0,54,30.04,10.0,SSE,9.2,-,N/A,,Clear,160,2012-12-06 03:53:00
10:53 PM,46.0,30.0,54,30.02,10.0,South,10.4,-,N/A,,Clear,170,2012-12-06 04:53:00
11:53 PM,45.0,28.9,53,30.01,10.0,South,9.2,-,N/A,,Clear,180,2012-12-06 05:53:00